• In Portugal
  • List of Countries
  • For 7 days
  • Water Temperature
  • Satellite Maps
  • Weather Map
  • Weather Widgets
  • user-avatar
    Login

    Hourly Weather Sysoevka

    Today, 23 July, Monday

    Time Temperature Precipitation Wind Pressure Humidity
    00:00 +25°C° 0.4 mm 1 mps 740 mmHg 94%
    01:00 +25°C° 0 mm 1 mps 740 mmHg 94%
    02:00 +24°C° 0 mm 1 mps 740 mmHg 94%
    03:00 +24°C° 0 mm 1 mps 740 mmHg 95%
    04:00 +24°C° 0 mm 1 mps 740 mmHg 95%
    05:00 +24°C° 0 mm 1 mps 740 mmHg 95%
    06:00 +25°C° 0 mm 1 mps 741 mmHg 95%
    07:00 +27°C° 0 mm 1 mps 741 mmHg 89%
    08:00 +28°C° 0 mm 1 mps 741 mmHg 82%
    09:00 +30°C° 0 mm 1 mps 741 mmHg 76%
    10:00 +31°C° 0 mm 1 mps 741 mmHg 71%
    11:00 +33°C° 0 mm 1 mps 740 mmHg 66%
    12:00 +34°C° 0 mm 1 mps 740 mmHg 61%
    13:00 +35°C° 0 mm 2 mps 740 mmHg 58%
    14:00 +36°C° 0 mm 2 mps 740 mmHg 55%
    15:00 +36°C° 0 mm 2 mps 740 mmHg 53%
    16:00 +35°C° 0 mm 2 mps 740 mmHg 59%
    17:00 +33°C° 0 mm 1 mps 740 mmHg 66%
    18:00 +32°C° 0 mm 1 mps 739 mmHg 73%
    19:00 +30°C° 0 mm 1 mps 740 mmHg 79%
    20:00 +26°C° 0 mm 0 mps 740 mmHg 85%
    21:00 +25°C° 0 mm 0 mps 740 mmHg 90%
    22:00 +24°C° 0 mm 0 mps 740 mmHg 91%
    23:00 +26°C° 0 mm 1 mps 740 mmHg 92%

    Tomorrow, 24 July, Tuesday

    Time Temperature Precipitation Wind Pressure Humidity
    00:00 +25°C° 0 mm 1 mps 740 mmHg 92%
    01:00 +25°C° 0 mm 1 mps 740 mmHg 92%
    02:00 +25°C° 0 mm 1 mps 740 mmHg 92%
    03:00 +25°C° 0 mm 1 mps 740 mmHg 92%
    04:00 +25°C° 0 mm 1 mps 740 mmHg 92%
    05:00 +25°C° 0 mm 1 mps 740 mmHg 91%
    06:00 +25°C° 0 mm 1 mps 740 mmHg 90%
    07:00 +28°C° 0 mm 1 mps 740 mmHg 83%
    08:00 +30°C° 0 mm 1 mps 740 mmHg 76%
    09:00 +32°C° 0 mm 1 mps 740 mmHg 69%
    10:00 +33°C° 0 mm 1 mps 740 mmHg 64%
    11:00 +35°C° 0 mm 2 mps 740 mmHg 60%
    12:00 +36°C° 0 mm 2 mps 740 mmHg 55%
    13:00 +36°C° 0 mm 2 mps 740 mmHg 55%
    14:00 +36°C° 0 mm 2 mps 740 mmHg 55%
    15:00 +36°C° 0 mm 3 mps 740 mmHg 54%
    16:00 +35°C° 0 mm 2 mps 740 mmHg 60%
    17:00 +34°C° 0 mm 2 mps 740 mmHg 66%
    18:00 +32°C° 0 mm 1 mps 740 mmHg 72%
    19:00 +30°C° 0 mm 1 mps 740 mmHg 78%
    20:00 +28°C° 0 mm 1 mps 740 mmHg 84%
    21:00 +25°C° 0 mm 0 mps 740 mmHg 90%
    22:00 +24°C° 0 mm 0 mps 740 mmHg 90%
    23:00 +24°C° 0 mm 0 mps 740 mmHg 89%

    Day after tomorrow, 25 July, Wednesday

    Time Temperature Precipitation Wind Pressure Humidity
    00:00 +26°C° 0 mm 1 mps 740 mmHg 89%
    01:00 +26°C° 0 mm 1 mps 740 mmHg 90%
    02:00 +25°C° 0 mm 1 mps 740 mmHg 90%
    03:00 +25°C° 0 mm 1 mps 740 mmHg 90%
    04:00 +25°C° 0 mm 1 mps 740 mmHg 89%
    05:00 +26°C° 0 mm 1 mps 740 mmHg 89%
    06:00 +26°C° 0 mm 1 mps 740 mmHg 88%
    07:00 +28°C° 0 mm 1 mps 740 mmHg 81%
    08:00 +30°C° 0 mm 1 mps 740 mmHg 74%
    09:00 +32°C° 0 mm 1 mps 740 mmHg 68%
    10:00 +33°C° 0 mm 1 mps 740 mmHg 61%
    11:00 +36°C° 0 mm 2 mps 740 mmHg 54%
    12:00 +38°C° 0 mm 2 mps 740 mmHg 48%
    13:00 +38°C° 0 mm 2 mps 739 mmHg 48%
    14:00 +38°C° 0 mm 2 mps 739 mmHg 48%
    15:00 +38°C° 0 mm 3 mps 738 mmHg 48%
    16:00 +36°C° 0 mm 3 mps 738 mmHg 55%
    17:00 +35°C° 0 mm 2 mps 738 mmHg 63%
    18:00 +32°C° 0 mm 2 mps 738 mmHg 70%
    19:00 +31°C° 0 mm 3 mps 738 mmHg 73%
    20:00 +30°C° 0 mm 3 mps 738 mmHg 75%
    21:00 +28°C° 0 mm 3 mps 739 mmHg 77%
    22:00 +27°C° 0.1 mm 3 mps 739 mmHg 81%
    23:00 +27°C° 0.1 mm 3 mps 739 mmHg 85%

    26 July, Thursday

    Time Temperature Precipitation Wind Pressure Humidity
    00:00 +26°C° 0.1 mm 3 mps 738 mmHg 88%
    01:00 +25°C° 0.2 mm 3 mps 738 mmHg 90%
    02:00 +25°C° 0.2 mm 3 mps 738 mmHg 91%
    03:00 +25°C° 0.2 mm 3 mps 738 mmHg 93%
    04:00 +25°C° 0.1 mm 3 mps 738 mmHg 93%
    05:00 +26°C° 0.1 mm 3 mps 738 mmHg 93%
    06:00 +26°C° 0.1 mm 3 mps 738 mmHg 92%
    07:00 +28°C° 0.1 mm 3 mps 738 mmHg 85%
    08:00 +30°C° 0.1 mm 4 mps 738 mmHg 78%
    09:00 +33°C° 0.1 mm 4 mps 739 mmHg 71%
    10:00 +33°C° 0.3 mm 4 mps 738 mmHg 71%
    11:00 +33°C° 0.3 mm 4 mps 738 mmHg 71%
    12:00 +34°C° 0.3 mm 4 mps 738 mmHg 71%
    13:00 +33°C° 1 mm 4 mps 738 mmHg 77%
    14:00 +33°C° 1 mm 3 mps 737 mmHg 83%
    15:00 +31°C° 1 mm 3 mps 737 mmHg 89%
    16:00 +31°C° 0.8 mm 2 mps 737 mmHg 90%
    17:00 +30°C° 0.8 mm 2 mps 737 mmHg 91%
    18:00 +30°C° 0.8 mm 2 mps 737 mmHg 92%
    19:00 +29°C° 0.7 mm 2 mps 737 mmHg 93%
    20:00 +27°C° 0.7 mm 1 mps 738 mmHg 95%
    21:00 +26°C° 0.7 mm 1 mps 738 mmHg 96%
    22:00 +26°C° 0.2 mm 1 mps 738 mmHg 96%
    23:00 +25°C° 0.2 mm 1 mps 738 mmHg 97%

    27 July, Friday

    Time Temperature Precipitation Wind Pressure Humidity
    00:00 +25°C° 0.2 mm 1 mps 738 mmHg 97%
    01:00 +25°C° 0.1 mm 1 mps 738 mmHg 97%
    02:00 +24°C° 0.1 mm 1 mps 738 mmHg 98%
    03:00 +24°C° 0.1 mm 1 mps 738 mmHg 98%
    04:00 +24°C° 0.1 mm 1 mps 738 mmHg 98%
    05:00 +24°C° 0.1 mm 1 mps 738 mmHg 98%
    06:00 +24°C° 0.1 mm 1 mps 738 mmHg 98%
    07:00 +25°C° 0.1 mm 1 mps 739 mmHg 95%
    08:00 +26°C° 0.1 mm 1 mps 739 mmHg 91%
    09:00 +27°C° 0.1 mm 1 mps 739 mmHg 87%
    10:00 +28°C° 0.2 mm 2 mps 739 mmHg 82%
    11:00 +29°C° 0.2 mm 2 mps 739 mmHg 76%
    12:00 +30°C° 0.2 mm 2 mps 739 mmHg 71%
    13:00 +30°C° 0.2 mm 2 mps 739 mmHg 68%
    14:00 +30°C° 0.2 mm 2 mps 739 mmHg 66%
    15:00 +31°C° 0.2 mm 2 mps 739 mmHg 64%
    16:00 +30°C° 0 mm 2 mps 739 mmHg 67%
    17:00 +30°C° 0 mm 2 mps 739 mmHg 71%
    18:00 +29°C° 0 mm 2 mps 739 mmHg 74%
    19:00 +27°C° 0 mm 2 mps 740 mmHg 81%
    20:00 +25°C° 0 mm 1 mps 740 mmHg 88%
    21:00 +23°C° 0 mm 1 mps 740 mmHg 95%
    22:00 +23°C° 0 mm 1 mps 740 mmHg 95%
    23:00 +21°C° 0 mm 0 mps 740 mmHg 96%

    28 July, Saturday

    Time Temperature Precipitation Wind Pressure Humidity
    00:00 +20°C° 0 mm 0 mps 740 mmHg 96%
    01:00 +20°C° 0 mm 0 mps 740 mmHg 96%
    02:00 +20°C° 0 mm 0 mps 740 mmHg 96%
    03:00 +20°C° 0 mm 0 mps 741 mmHg 97%
    04:00 +20°C° 0 mm 0 mps 741 mmHg 96%
    05:00 +20°C° 0 mm 0 mps 741 mmHg 96%
    06:00 +21°C° 0 mm 0 mps 741 mmHg 96%
    07:00 +23°C° 0 mm 0 mps 741 mmHg 88%
    08:00 +27°C° 0 mm 1 mps 741 mmHg 79%
    09:00 +29°C° 0 mm 1 mps 742 mmHg 71%
    10:00 +30°C° 0 mm 1 mps 741 mmHg 64%
    11:00 +32°C° 0 mm 1 mps 741 mmHg 58%
    12:00 +34°C° 0 mm 2 mps 741 mmHg 51%
    13:00 +34°C° 0 mm 2 mps 741 mmHg 51%
    14:00 +34°C° 0 mm 2 mps 741 mmHg 50%
    15:00 +34°C° 0 mm 2 mps 740 mmHg 49%
    16:00 +32°C° 0 mm 2 mps 740 mmHg 56%
    17:00 +31°C° 0 mm 2 mps 740 mmHg 64%
    18:00 +30°C° 0 mm 1 mps 740 mmHg 71%
    19:00 +28°C° 0 mm 1 mps 741 mmHg 77%
    20:00 +26°C° 0 mm 1 mps 741 mmHg 84%
    21:00 +22°C° 0 mm 0 mps 741 mmHg 90%
    22:00 +22°C° 0 mm 0 mps 741 mmHg 91%
    23:00 +23°C° 0 mm 1 mps 741 mmHg 92%
    Show more